Flag for Finland Weather past 2 weeks in Kokkola, Finland

Now
79 °F

Passing clouds.


Feels Like: 79 °F
Forecast: 64 / 72 °F
Wind: 10 mph from Southeast

Location: Kruunupyy

Current Time: Jul 30, 2014 at 2:31:31 PM

Latest Report: Jul 30, 2014 at 1:50 PM


Visibility: N/A

Pressure: 29.80 "Hg

Humidity: 42%

Dew point: 54 °F

Location of KokkolaLocation

Historic Weather in Kokkola — Graph

°F

Kokkola temperature yesterday

Maximum temperature yesterday: 75 °F (at 1:20 PM)
Minimum temperature yesterday: 57 °F (at 4:50 AM)
Average temperature yesterday: 68 °F

Past Weeks' High & Low Weather Summary

 TemperatureHumidityPressure
High86 °F (Jul 23, 4:50 PM)100% (Jul 15, 7:50 PM)30.27 "Hg (Jul 15, 7:50 PM)
Low52 °F (Jul 18, 3:50 AM)30% (Jul 21, 2:20 PM)29.74 "Hg (Jul 29, 6:20 AM)
Average69 °F75%30.05 "Hg
* Reported Jul 15 1:20 PM — Jul 30 1:20 PM, Kokkola, Weather by CustomWeather, © 2014

Note: Actual official high and low records may vary slightly from our data, if they occured in-between our weather recording intervals... More about our weather records

Advertising

Kokkola weather history for previous 24 hours

 ConditionsComfort  
Time TempWeatherWind HumidityBarometerVisibility
1:20 PM
Jul 30
77 °FPassing clouds.12 mph42%29.80 "HgN/A
12:50 PM79 °FPassing clouds.7 mph39%29.83 "HgN/A
12:20 PM75 °FPassing clouds.7 mph44%29.83 "HgN/A
11:50 AM75 °FPassing clouds.8 mph44%29.83 "HgN/A
11:20 AM73 °FPassing clouds.8 mph47%29.83 "HgN/A
10:50 AM72 °FPassing clouds.7 mph53%29.83 "HgN/A
10:20 AM70 °FPassing clouds.8 mph60%29.83 "HgN/A
9:50 AM70 °FPassing clouds.9 mph60%29.83 "HgN/A
9:20 AM68 °FPassing clouds.8 mph69%29.83 "HgN/A
8:50 AM66 °FPassing clouds.8 mph78%29.83 "HgN/A
8:20 AM66 °FPassing clouds.6 mph78%29.86 "HgN/A
7:50 AM63 °FSunny.3 mph83%29.86 "Hg10 mi
7:20 AM61 °FSunny.3 mph88%29.86 "Hg10 mi
6:50 AM59 °FSunny.No wind94%29.86 "Hg10 mi
6:20 AM55 °FSunny.No wind100%29.86 "Hg10 mi
5:50 AM55 °FSunny.1 mph94%29.86 "Hg10 mi
5:20 AM55 °FClear.2 mph94%29.86 "Hg10 mi
4:50 AM55 °FClear.6 mph100%29.86 "Hg10 mi
4:20 AM54 °FClear.2 mph94%29.86 "Hg10 mi
3:50 AM52 °FFog.1 mph100%29.86 "Hg1 mi
3:20 AM54 °FClear.No wind94%29.86 "Hg2 mi
2:50 AM54 °FClear.No wind94%29.86 "Hg10 mi
2:20 AM57 °FClear.No wind94%29.86 "Hg10 mi
1:50 AM55 °FClear.6 mph100%29.86 "Hg10 mi
1:20 AM57 °FClear.2 mph100%29.86 "Hg10 mi
12:50 AM59 °FClear.5 mph94%29.86 "Hg10 mi
12:20 AM59 °FClear.5 mph94%29.86 "Hg10 mi
11:50 PM
Jul 29
59 °FClear.5 mph94%29.86 "Hg10 mi
11:20 PM61 °FSunny.6 mph88%29.86 "Hg10 mi
10:50 PM61 °FSunny.6 mph88%29.83 "Hg10 mi
10:20 PM64 °FSunny.3 mph83%29.83 "Hg10 mi
9:50 PM68 °FSunny.2 mph73%29.83 "Hg10 mi
9:20 PM68 °FSunny.3 mph73%29.83 "Hg10 mi
8:50 PM70 °FSunny.7 mph73%29.83 "Hg10 mi
8:20 PM70 °FSunny.8 mph73%29.80 "Hg10 mi
7:50 PM72 °FSunny.8 mph69%29.80 "Hg10 mi
7:20 PM72 °FSunny.8 mph61%29.80 "Hg10 mi
6:50 PM72 °FPassing clouds.8 mph65%29.80 "HgN/A
6:20 PM72 °FPassing clouds.9 mph65%29.80 "HgN/A
5:50 PM73 °FPassing clouds.10 mph61%29.80 "HgN/A
5:20 PM73 °FPassing clouds.12 mph61%29.80 "HgN/A
4:50 PM73 °FPassing clouds.10 mph61%29.80 "HgN/A
4:20 PM73 °FPassing clouds.10 mph61%29.80 "HgN/A
3:50 PM73 °FPassing clouds.12 mph65%29.80 "HgN/A
3:20 PM73 °FPassing clouds.10 mph65%29.80 "HgN/A
2:50 PM75 °FPassing clouds.10 mph61%29.80 "HgN/A
2:20 PM73 °FPassing clouds.12 mph65%29.80 "HgN/A
Weather by CustomWeather, © 2014

See weather overviewHow to use our weather pages